Regional Weather Roundup
Issued by NWS

Home | Current Version | Previous Version | Text Only | Print | Product List | Glossary On
Versions: 1 2 3 4 5 6 7 8 9 10 11 12 13 14 15 16 17 18 19 20 21 22 23 24 25 26 27 28 29 30 31 32 33 34 35 36 37 38 39 40 41 42 43 44 45 46 47 48 49 50
000
ASUS43 KLMK 222210
RWRKY
KENTUCKY REGIONAL WEATHER ROUNDUP
NATIONAL WEATHER SERVICE LOUISVILLE KY
600 PM EDT SUN OCT 22 2017

NOTE "FAIR" INDICATES FEW OR NO CLOUDS BELOW 12,000 FEET
WITH NO SIGNIFICANT WEATHER AND/OR OBSTRUCTIONS TO VISIBILITY.

KYZ001>023-026-027-061>063-070>075-222300-
WESTERN AND SOUTH CENTRAL KENTUCKY

CITY           SKY/WX    TMP DP  RH WIND       PRES   REMARKS
PADUCAH        HVY RAIN  68  65  90 W10       29.95R VSB 1
HENDERSON      CLOUDY    76  61  59 SE9       29.97F
OWENSBORO      CLOUDY    76  61  59 SE10      29.99F
HOPKINSVILLE   NOT AVBL
BOWLING GREEN  LGT RAIN  77  60  55 S9        30.03F
GLASGOW        PTSUNNY   75  57  54 SE7       30.05F
$$

KYZ024-025-028>034-038-045-046-053-222300-
NORTH CENTRAL KENTUCKY

CITY           SKY/WX    TMP DP  RH WIND       PRES   REMARKS
LOUISVILLE/SDF CLOUDY    75  58  55 SE9       30.04F
LOUISVILLE/LOU CLOUDY    75  59  57 SE7       30.06F
FORT KNOX      PTCLDY    74  58  56 SE9       30.03F
$$

KYZ035>037-039>044-047>052-055>060-089>105-222300-
NORTHEAST KENTUCKY

CITY           SKY/WX    TMP DP  RH WIND       PRES   REMARKS
LEXINGTON      PTCLDY    73  54  51 SE7       30.12F
COVINGTON      MOCLDY    69  54  58 S9        30.10F
FRANKFORT      PTCLDY    74  54  49 SE8       30.09F
$$

KYZ054-064>069-076>088-106>120-222300-
SOUTHEAST KENTUCKY

CITY           SKY/WX    TMP DP  RH WIND       PRES   REMARKS
JACKSON        PTCLDY    73  49  42 CALM      30.17S
LONDON         PTCLDY    73  52  47 S5        30.15F
SOMERSET       CLOUDY    72  54  53 SE5       30.13F
MIDDLESBORO    CLEAR     72  55  54 CALM      30.17S
MONTICELLO     CLOUDY    73  59  61 VRB6      30.13F
$$





USA.gov is the U.S. government's official web portal to all federal, state and local government web resources and services.